Location: Godzisko
(49.9648°N, 19.4576°E)
Time: 07:02:07
(UTC+00:00)

Cosmos 2278 Rocket - Pass Details

Date: 20 April 2021
Orbit: 842 x 844 km, 71.0° (Epoch: 06 May)

Event Time Altitude Azimuth Distance (km) Brightness Sun altitude
Exits shadow 01:44:19 24° 251° (WSW) 1,687 3.2 -16.6°
Maximum altitude 01:47:18 43° 309° (NW) 1,177 2.9 -16.3°
Drops below altitude 10° 01:52:42 10° 20° (NNE) 2,474 5.6 -15.6°
Sets 01:55:17 0° 27° (NNE) 3,412 6.7 -15.3°
